Location: Unspecified
(0.0000°N, 0.0000°E)
Time: 20:01:40
(UTC+00:00)

deb Kosmos-1275 - Pass Details

Date: 14 March 2026
Orbit: 936 x 1103 km, 82.9° (Epoch: 11 April)

Event Time Altitude Azimuth Distance (km) Brightness Sun altitude
Rises 04:44:22 0° 140° (SE) 3,611 ? -21.2°
Reaches altitude 10° 04:50:16 10° 95° (E) 2,696 ? -19.7°
Maximum altitude 04:50:35 10° 92° (E) 2,696 ? -19.7°
Drops below altitude 10° 04:50:53 10° 89° (E) 2,700 ? -19.6°
Sets 04:56:52 0° 45° (NE) 3,694 ? -18.1°
